Regional Weather Roundup
Issued by NWS

Home | Current Version | Previous Version | Text Only | Print | Product List | Glossary Off
Versions: 1 2 3 4 5 6 7 8 9 10 11 12 13 14 15 16 17 18 19 20 21 22 23 24 25 26 27 28 29 30 31 32 33 34 35 36 37 38 39 40 41 42 43 44 45 46 47 48 49 50

000
ASUS43 KBIS 260810
RWRND

NORTH DAKOTA REGIONAL WEATHER ROUNDUP
NATIONAL WEATHER SERVICE BISMARCK ND
300 AM CDT FRI AUG 26 2016

NOTE: "FAIR" INDICATES FEW OR NO CLOUDS BELOW 12,000 FEET WITH NO
SIGNIFICANT WEATHER AND/OR OBSTRUCTIONS TO VISIBILITY.


NDZ001>003-009>011-017-260900-
NORTHWEST NORTH DAKOTA

CITY           SKY/WX    TMP DP  RH WIND       PRES   REMARKS
WILLISTON      FAIR      52  39  61 CALM      30.08F
MINOT          FAIR      56  45  66 SW10      30.05S
MINOT AFB      CLOUDY    52  44  74 S5        30.04S
$$

NDZ018>021-031>035-040>046-260900-
SOUTHWEST NORTH DAKOTA

CITY           SKY/WX    TMP DP  RH WIND       PRES   REMARKS
BISMARCK       FAIR      47  44  90 CALM      30.14S
DICKINSON      FAIR      49  39  68 S5        30.12F
GARRISON         N/A     52  46  80 CALM      30.09S
HETTINGER ARPT FAIR      49  40  71 CALM      30.17F
$$

NDZ004>008-012>016-024-026-027-054-260900-
NORTHEAST NORTH DAKOTA

CITY           SKY/WX    TMP DP  RH WIND       PRES   REMARKS
GRAND FORKS    FAIR      50  47  89 SW5       30.06F
GRND FRKS AFB  FAIR      51  48  91 SW5       30.06F
DEVILS LAKE    FAIR      58  52  80 SW7       30.08F
$$

NDZ022-023-025-028>030-036>039-047>053-260900-
SOUTHEAST NORTH DAKOTA

CITY           SKY/WX    TMP DP  RH WIND       PRES   REMARKS
FARGO          FAIR      55  50  83 SW7       30.10F
JAMESTOWN      FAIR      53  48  83 SW7       30.12R
$$





USA.gov is the U.S. government's official web portal to all federal, state and local government web resources and services.